E1521 Weather Reports


Display with metric or nautical units.
time (UTC)temp
F
wind
direction
speed
MPH
gust
MPH
rain 1hr
in
rain 24hr
in
rain mn
in
humidity
%
barometer
mb
20260505101516 62 150 2.0 4.0 0.00 0.00 0.00 82 1012.1
20260505100516 63 131 1.0 4.0 0.00 0.00 0.00 81 1012.1
20260505095516 63 137 2.0 5.0 0.00 0.00 0.00 78 1012.3
20260505094537 64 152 2.0 5.0 0.00 0.00 0.00 74 1012.3
20260505093517 65 151 2.0 5.0 0.00 0.00 0.00 70 1012.3
20260505092516 65 156 1.0 4.0 0.00 0.00 0.00 67 1012.3
20260505091558 65 158 1.0 4.0 0.00 0.00 0.00 66 1012.2
20260505090516 65 155 2.0 7.0 0.00 0.00 0.00 65 1012.4
20260505085516 65 145 2.0 7.0 0.00 0.00 0.00 65 1012.5
20260505084516 65 150 3.0 9.0 0.00 0.00 0.00 66 1012.8
20260505083517 65 155 3.0 11.0 0.00 0.00 0.00 66 1012.8
20260505082536 65 158 4.0 12.0 0.00 0.00 0.00 67 1013.1
20260505081516 65 146 5.0 12.0 0.00 0.00 0.00 67 1012.9
20260505080516 66 154 5.0 11.0 0.00 0.00 0.00 65 1013.0
20260505075517 66 162 7.0 14.0 0.00 0.00 0.00 63 1013.1
20260505074516 66 163 2.0 9.0 0.00 0.00 0.00 63 1013.0
20260505073516 66 156 3.0 10.0 0.00 0.00 0.00 60 1013.1
20260505072516 67 152 4.0 11.0 0.00 0.00 0.00 58 1013.0
20260505071515 67 164 5.0 11.0 0.00 0.00 0.00 56 1012.9
20260505070519 67 160 5.0 14.0 0.00 0.00 0.00 55 1012.8
20260505065516 68 148 3.0 10.0 0.00 0.00 0.00 53 1012.7
20260505064515 68 165 3.0 9.0 0.00 0.00 0.00 51 1012.5
20260505063515 68 156 5.0 12.0 0.00 0.00 0.00 50 1012.4
20260505062556 68 155 5.0 12.0 0.00 0.00 0.00 50 1012.3
20260505061515 69 150 4.0 11.0 0.00 0.00 0.00 49 1012.4
20260505060535 69 158 7.0 14.0 0.00 0.00 0.00 47 1012.6
20260505055515 69 156 4.0 13.0 0.00 0.00 0.00 45 1012.6
20260505054516 69 158 3.0 9.0 0.00 0.00 0.00 44 1012.7
20260505053556 70 152 5.0 12.0 0.00 0.00 0.00 43 1012.9
20260505052547 70 152 3.0 8.0 0.00 0.00 0.00 42 1012.9
20260505051518 70 158 3.0 8.0 0.00 0.00 0.00 41 1012.9
20260505050515 70 159 3.0 9.0 0.00 0.00 0.00 41 1012.9
20260505041516 71 156 3.0 11.0 0.00 0.00 0.00 36 1012.7
20260505040556 72 158 3.0 8.0 0.00 0.00 0.00 35 1012.6
20260505035515 72 172 3.0 10.0 0.00 0.00 0.00 35 1012.3
20260505034515 72 164 4.0 12.0 0.00 0.00 0.00 35 1012.2
20260505033516 72 157 5.0 10.0 0.00 0.00 0.00 35 1012.1
20260505032516 73 160 4.0 11.0 0.00 0.00 0.00 34 1011.8
20260505031516 73 153 5.0 15.0 0.00 0.00 0.00 34 1011.6
20260505030516 75 171 3.0 12.0 0.00 0.00 0.00 37 1011.5
20260505025515 75 200 3.0 10.0 0.00 0.00 0.00 36 1011.5
20260505024516 75 178 4.0 11.0 0.00 0.00 0.00 34 1011.4
20260505023515 75 198 3.0 8.0 0.00 0.00 0.00 31 1011.5
20260505022515 75 187 2.0 8.0 0.00 0.00 0.00 32 1011.5
20260505021537 76 183 2.0 9.0 0.00 0.00 0.00 31 1011.1
20260505020536 76 170 4.0 9.0 0.00 0.00 0.00 31 1011.0
20260505015516 76 172 4.0 10.0 0.00 0.00 0.00 32 1010.8
20260505014515 77 168 4.0 11.0 0.00 0.00 0.00 32 1010.7
20260505013516 77 173 3.0 9.0 0.00 0.00 0.00 32 1010.7
20260505012515 77 194 2.0 5.0 0.00 0.00 0.00 32 1010.7
20260505011515 77 166 1.0 5.0 0.00 0.00 0.00 32 1010.7
20260505010516 77 285 3.0 6.0 0.00 0.00 0.00 37 1010.7
20260505005515 77 277 1.0 3.0 0.00 0.00 0.00 37 1010.7
20260505004535 77 292 3.0 5.0 0.00 0.00 0.00 37 1010.6
20260505003517 77 291 2.0 7.0 0.00 0.00 0.00 37 1010.7
20260505002516 77 296 4.0 7.0 0.00 0.00 0.00 36 1010.6
20260505001516 77 297 4.0 10.0 0.00 0.00 0.00 36 1010.7
20260505000515 78 308 4.0 7.0 0.00 0.00 0.00 37 1010.8
20260504235536 78 294 4.0 8.0 0.00 0.00 0.00 36 1010.9
20260504234515 80 265 2.0 8.0 0.00 0.00 0.00 30 1011.1
20260504233515 80 217 1.0 5.0 0.00 0.00 0.00 30 1010.7
20260504232516 80 171 1.0 3.0 0.00 0.00 0.00 30 1010.6
20260504231515 81 181 1.0 5.0 0.00 0.00 0.00 29 1010.8
20260504230515 81 193 1.0 5.0 0.00 0.00 0.00 30 1011.1
20260504225517 81 177 2.0 7.0 0.00 0.00 0.00 30 1011.1
20260504224518 80 183 2.0 7.0 0.00 0.00 0.00 33 1011.1
20260504223517 79 212 1.0 8.0 0.00 0.00 0.00 35 1010.9
20260504222517 79 172 2.0 6.0 0.00 0.00 0.00 35 1010.9
20260504221517 79 223 1.0 6.0 0.00 0.00 0.00 34 1011.3
20260504220537 79 205 1.0 6.0 0.00 0.00 0.00 34 1011.6
20260504215517 79 216 2.0 7.0 0.00 0.00 0.00 34 1011.9
20260504214537 79 238 2.0 7.0 0.00 0.00 0.00 35 1012.3
20260504213517 78 268 4.0 10.0 0.00 0.00 0.00 36 1012.5
20260504212517 78 276 4.0 9.0 0.00 0.00 0.00 37 1012.4
20260504211517 79 239 3.0 13.0 0.00 0.00 0.00 36 1012.3
20260504210558 79 253 4.0 9.0 0.00 0.00 0.00 35 1012.4
20260504205515 79 252 5.0 14.0 0.00 0.00 0.00 36 1012.5
20260504204517 79 276 3.0 8.0 0.00 0.00 0.00 35 1012.4
20260504203518 80 274 4.0 9.0 0.00 0.00 0.00 35 1012.3
20260504202537 81 276 2.0 8.0 0.00 0.00 0.00 35 1012.2
20260504201516 80 279 1.0 7.0 0.00 0.00 0.00 35 1012.3
20260504200518 80 242 2.0 7.0 0.00 0.00 0.00 35 1012.4
20260504195516 80 246 1.0 6.0 0.00 0.00 0.00 35 1012.6
20260504194517 81 257 2.0 6.0 0.00 0.00 0.00 34 1012.6
20260504193517 81 204 2.0 8.0 0.00 0.00 0.00 33 1012.5
20260504192517 81 212 3.0 9.0 0.00 0.00 0.00 33 1012.5
20260504191516 80 179 3.0 8.0 0.00 0.00 0.00 34 1012.5
20260504190537 80 203 4.0 10.0 0.00 0.00 0.00 32 1012.3
20260504185516 80 179 3.0 10.0 0.00 0.00 0.00 33 1012.3
20260504184516 80 267 3.0 9.0 0.00 0.00 0.00 33 1012.5
20260504183516 80 224 2.0 7.0 0.00 0.00 0.00 33 1012.6
20260504182517 80 157 3.0 10.0 0.00 0.00 0.00 34 1012.6
20260504181516 80 192 3.0 9.0 0.00 0.00 0.00 34 1012.6
20260504180517 79 175 3.0 7.0 0.00 0.00 0.00 34 1012.5
20260504175517 80 200 3.0 8.0 0.00 0.00 0.00 34 1012.9
20260504174517 80 171 2.0 10.0 0.00 0.00 0.00 34 1012.7
20260504173516 79 182 3.0 7.0 0.00 0.00 0.00 34 1012.8
20260504172558 79 158 3.0 9.0 0.00 0.00 0.00 33 1013.1
20260504171516 80 183 3.0 10.0 0.00 0.00 0.00 34 1013.3
20260504170517 80 186 3.0 9.0 0.00 0.00 0.00 34 1013.1
20260504150517 74 143 0.0 4.0 0.00 0.00 0.00 45 1012.5
20260504140516 71 129 1.0 3.0 0.00 0.00 0.00 48 1012.2
20260504130518 70 141 1.0 3.0 0.00 0.00 0.00 47 1011.7
20260504110516 72 0.0 0.0 0.00 0.00 0.00 43 1011.4